FENGYUN 1C DEB, 29907

Orbit data source: Space-Track

FENGYUN 1C DEB, 29907 is space debris in SSO originally from a launch on Mon, 10 May 1999 UTC launched from the Taiyaun Space Center, China (TSC). Fengyun 1C debris stems from the Chinese weather satellite Fengyun-1C, which was intentionally destroyed by a Chinese anti-satellite missile in 2007. This event dramatically increased the amount of space debris, with thousands of trackable fragments posing hazards to satellites and human spaceflight. The Fengyun 1C debris cloud has become a focal point in discussions about space sustainability and the need for international regulations to prevent the creation of new debris.

Loading next visibility...
Identifier
29907, 1999-025HD
Orbit
SSO
Country
Flag of CNCN / PRC
Related business
Manufacturer
Unknown
Mission
Spacecraft
Bus & Motor
Unknown
Mass
Unknown
Launch date (UTC)
1999-05-10 (27 years ago)
Launch vehicle
Unknown
Launch site
Taiyaun Space Center, China (TSC)
Object type
Payload
Rocket body
Debris
Shape & HBR
Unknown shape, 0.1 m
Radar Cross Section
Medium (>0.1 m² and <1 m²)

Expand to show TLE details & history
Last TLE update: 19 hours ago

TLE from 19 hours ago
0 FENGYUN 1C DEB
1 29907U 99025HD  26237.16534638  .00001768  00000-0  94673-3 0  9992
2 29907  99.0964 312.7794 0081328 251.1145 138.4243 14.12802237  2052
Epoch: 2026-08-25T03:58Z
TLE epoch observation values (Epoch: 2026-08-25T03:58:05.927Z)
Latitude
29.78523°
Longitude
-85.41229°
Altitude
897.685 km
Speed
7.383 km/s
True Right ascension
20h 30m 11s
True Declination
29° 38' 24"
Sunlit
Object was in full shadow at epoch
Visualization orbit readout
Latitude
Unknown
Longitude
Unknown
Altitude
Unknown
Speed
Unknown
Apparent Right ascension
Unknown
Apparent Declination
Unknown
Sunlit
N/A
Visualization observer readout
Local Sidereal Time
14:16:09
Azimuth
Unknown
Elevation
Unknown
Doppler factor
Unknown
Orbital elements
Apogee altitude
905.746 km
Perigee altitude
788.225 km
Semi-major axis
7,225.122 km
Eccentricity
0.00813
Inclination
99.0964°
RAAN
312.7794°
Arg. of periapsis
251.1145°
True anomaly
139.03807°
Mean anomaly
138.4243°
Eccentric anomaly
138.73165°
Mean motion
3.53407 °/min
Orbital period
101.87 mins
BSTAR
0.00094673
Loading maneuver chart data...
Computing Atmospheric mass density...

Documentation

Showing up to 5 results
|